Zurück zum Katalog

THORAD DELTA 1 DEB

LostSSO
NORAD 42624·DEBRIS·🇺🇸 United States

Gestartet Nov 15, 1974 von Vandenberg Space Force Base

Loading…

Nächste Überflüge (nächste 24 Stunden)

TLE

VeraltetSource: Space-Track

Epoche: Aug 25, 2016, 22:19 UTC

1 42624U 74089GR  16238.93055181  .00000080  00000-0  58560-3 0  9993
2 42624 101.1497 274.9063 0063328  76.6577 284.0847 12.73828505550794

Verfolge THORAD DELTA 1 DEB in Echtzeit mit AllMySat

Download on the App Store